GW6846 Weather Reports


time (UTC)temp
C
wind
direction
speed
KPH
gust
KPH
rain 1hr
cm
rain 24hr
cm
rain mn
cm
humidity
%
barometer
mb
20260502170202 30 90 4.8 11.3 0.00 0.00 0.00 25 1014.7
20260502164148 29 90 9.7 14.5 0.00 0.00 0.00 25 1014.9
20260502163643 29 87 4.8 9.7 0.00 0.00 0.00 26 1015.0
20260502163141 29 81 3.2 12.9 0.00 0.00 0.00 26 1014.9
20260502162638 29 84 4.8 9.7 0.00 0.00 0.00 25 1015.0
20260502162135 29 135 1.6 6.4 0.00 0.00 0.00 25 1014.7
20260502161632 28 115 3.2 16.1 0.00 0.00 0.00 25 1014.8
20260502161129 28 78 3.2 9.7 0.00 0.00 0.00 26 1014.8
20260502160627 28 163 3.2 6.4 0.00 0.00 0.00 26 1014.7
20260502160125 28 112 6.4 16.1 0.00 0.00 0.00 25 1014.7
20260502152039 26 109 1.6 3.2 0.00 0.00 0.00 24 1014.4
20260502151536 25 107 1.6 3.2 0.00 0.00 0.00 25 1014.4
20260502151034 25 146 3.2 4.8 0.00 0.00 0.00 24 1014.2
20260502150531 25 138 0.0 1.6 0.00 0.00 0.00 25 1014.3
20260502130416 21 82 0.0 1.6 0.00 0.00 0.00 28 1013.0
20260502123358 21 124 0.0 0.0 0.00 0.00 0.00 29 1012.4
20260502122855 21 125 1.6 1.6 0.00 0.00 0.00 28 1012.4
20260502122351 21 41 0.0 3.2 0.00 0.00 0.00 26 1012.4
20260502121850 21 47 0.0 0.0 0.00 0.00 0.00 28 1012.3
20260502121347 20 47 1.6 3.2 0.00 0.00 0.00 28 1012.2
20260502120844 19 47 0.0 0.0 0.00 0.00 0.00 32 1012.3
20260502120340 18 47 0.0 1.6 0.00 0.00 0.00 32 1012.2
20260502115838 18 46 0.0 0.0 0.00 0.00 0.00 32 1012.3
20260502115335 18 46 0.0 1.6 0.00 0.00 0.00 33 1012.2
20260502114831 18 46 0.0 0.0 0.00 0.00 0.00 33 1012.2
20260502114328 19 46 0.0 0.0 0.00 0.00 0.00 32 1012.2
20260502113825 19 47 0.0 0.0 0.00 0.00 0.00 32 1012.4
20260502113323 18 46 0.0 0.0 0.00 0.00 0.00 33 1012.2
20260502112821 18 46 0.0 0.0 0.00 0.00 0.00 33 1012.3
20260502112318 19 46 0.0 0.0 0.00 0.00 0.00 33 1012.3
20260502111815 19 46 0.0 0.0 0.00 0.00 0.00 33 1012.2
20260502111313 19 47 0.0 0.0 0.00 0.00 0.00 33 1012.1
20260502110810 20 47 0.0 0.0 0.00 0.00 0.00 33 1012.2
20260502110308 20 47 0.0 0.0 0.00 0.00 0.00 33 1012.1
20260502105806 20 47 0.0 0.0 0.00 0.00 0.00 32 1011.9
20260502105302 20 47 0.0 0.0 0.00 0.00 0.00 32 1012.1
20260502104800 20 47 0.0 0.0 0.00 0.00 0.00 31 1012.2
20260502104257 20 47 0.0 0.0 0.00 0.00 0.00 31 1012.1
20260502103754 20 46 0.0 1.6 0.00 0.00 0.00 30 1012.0
20260502103251 20 47 0.0 0.0 0.00 0.00 0.00 31 1012.2
20260502102748 20 47 0.0 0.0 0.00 0.00 0.00 31 1011.8
20260502102245 20 47 0.0 0.0 0.00 0.00 0.00 31 1011.9
20260502101743 20 46 0.0 0.0 0.00 0.00 0.00 31 1011.8
20260502101241 20 46 0.0 0.0 0.00 0.00 0.00 32 1011.8
20260502100739 20 46 0.0 0.0 0.00 0.00 0.00 31 1011.9
20260502100237 20 46 0.0 0.0 0.00 0.00 0.00 33 1011.5
20260502091211 21 51 0.0 0.0 0.00 0.00 0.00 26 1011.5
20260502090709 22 51 0.0 0.0 0.00 0.00 0.00 27 1011.4
20260502090205 22 51 0.0 0.0 0.00 0.00 0.00 25 1011.5
20260502071107 23 238 0.0 0.0 0.00 0.00 0.00 21 1010.7
20260502070605 23 238 1.6 3.2 0.00 0.00 0.00 22 1010.5
20260502065600 23 237 0.0 1.6 0.00 0.00 0.00 21 1010.6
20260502065058 23 237 0.0 0.0 0.00 0.00 0.00 22 1010.8
20260502064556 23 237 0.0 0.0 0.00 0.00 0.00 21 1010.7
20260502064053 23 237 0.0 0.0 0.00 0.00 0.00 21 1010.7
20260502063551 24 237 0.0 0.0 0.00 0.00 0.00 21 1010.5
20260502063048 24 237 1.6 1.6 0.00 0.00 0.00 21 1010.4
20260502062545 24 237 1.6 1.6 0.00 0.00 0.00 21 1010.6
20260502062043 24 237 0.0 3.2 0.00 0.00 0.00 21 1010.5
20260502061541 24 241 1.6 3.2 0.00 0.00 0.00 20 1010.5
20260502061038 25 235 0.0 1.6 0.00 0.00 0.00 20 1010.5
20260502060533 25 233 1.6 1.6 0.00 0.00 0.00 20 1010.3
20260502060030 25 236 1.6 3.2 0.00 0.00 0.00 20 1010.4
20260502055527 25 219 3.2 3.2 0.00 0.00 0.00 20 1010.5
20260502055026 25 218 1.6 3.2 0.00 0.00 0.00 20 1010.2
20260502054525 25 210 0.0 1.6 0.00 0.00 0.00 20 1010.4
20260502054021 25 210 1.6 1.6 0.00 0.00 0.00 21 1010.3
20260502053518 25 234 0.0 1.6 0.00 0.00 0.00 20 1010.3
20260502053016 25 209 1.6 1.6 0.00 0.00 0.00 20 1010.3
20260502052514 25 209 0.0 1.6 0.00 0.00 0.00 20 1010.2
20260502052012 25 209 0.0 1.6 0.00 0.00 0.00 19 1010.3
20260502051510 25 209 0.0 1.6 0.00 0.00 0.00 20 1010.2
20260502051007 25 209 0.0 1.6 0.00 0.00 0.00 19 1010.2
20260502050503 25 209 0.0 0.0 0.00 0.00 0.00 19 1010.2
20260502050000 25 209 0.0 0.0 0.00 0.00 0.00 19 1010.1
20260502045457 25 209 0.0 0.0 0.00 0.00 0.00 19 1010.1
20260502044954 25 209 0.0 0.0 0.00 0.00 0.00 19 1009.9
20260502044449 25 209 0.0 0.0 0.00 0.00 0.00 19 1010.0
20260502043947 26 209 0.0 0.0 0.00 0.00 0.00 19 1009.9
20260502043445 26 209 0.0 1.6 0.00 0.00 0.00 18 1009.9
20260502042944 26 209 0.0 1.6 0.00 0.00 0.00 18 1009.7
20260502042441 26 209 1.6 1.6 0.00 0.00 0.00 18 1009.9
20260502041938 27 209 0.0 1.6 0.00 0.00 0.00 18 1009.8
20260502041436 26 209 1.6 1.6 0.00 0.00 0.00 18 1009.8
20260502040933 26 209 1.6 1.6 0.00 0.00 0.00 18 1009.7
20260502040429 26 209 0.0 0.0 0.00 0.00 0.00 18 1009.6
20260502035926 26 209 0.0 0.0 0.00 0.00 0.00 18 1009.5
20260502035422 27 209 0.0 0.0 0.00 0.00 0.00 17 1009.5
20260502034920 27 209 0.0 0.0 0.00 0.00 0.00 18 1009.5
20260502034419 27 209 0.0 1.6 0.00 0.00 0.00 18 1009.4
20260502033917 27 209 0.0 0.0 0.00 0.00 0.00 17 1009.4
20260502033414 27 209 0.0 1.6 0.00 0.00 0.00 19 1009.1
20260502032910 27 209 0.0 1.6 0.00 0.00 0.00 17 1009.4
20260502032407 27 209 0.0 0.0 0.00 0.00 0.00 17 1009.1
20260502031904 28 209 0.0 0.0 0.00 0.00 0.00 17 1009.3
20260502031402 28 209 0.0 1.6 0.00 0.00 0.00 17 1008.9
20260502030900 28 209 0.0 0.0 0.00 0.00 0.00 17 1009.1
20260502030358 28 209 1.6 1.6 0.00 0.00 0.00 16 1009.2
20260502025855 28 209 0.0 1.6 0.00 0.00 0.00 16 1009.0
20260502025353 29 209 1.6 1.6 0.00 0.00 0.00 16 1009.0
20260502024850 29 209 1.6 1.6 0.00 0.00 0.00 16 1008.8
20260502024348 29 195 1.6 3.2 0.00 0.00 0.00 16 1008.9
20260502023846 30 180 0.0 1.6 0.00 0.00 0.00 16 1008.7
20260502023343 30 192 0.0 3.2 0.00 0.00 0.00 16 1008.8
20260502022841 30 225 1.6 3.2 0.00 0.00 0.00 16 1008.7
20260502022337 30 196 3.2 4.8 0.00 0.00 0.00 15 1008.5
20260502021834 30 198 3.2 3.2 0.00 0.00 0.00 16 1008.6
20260502021331 30 223 1.6 3.2 0.00 0.00 0.00 15 1008.4
20260502020829 30 219 3.2 4.8 0.00 0.00 0.00 15 1008.7
20260502020326 30 212 3.2 6.4 0.00 0.00 0.00 16 1008.6
20260502015823 30 235 3.2 4.8 0.00 0.00 0.00 15 1008.5
20260502015320 31 213 0.0 3.2 0.00 0.00 0.00 15 1008.5
20260502014817 31 233 3.2 3.2 0.00 0.00 0.00 15 1008.4
20260502014314 31 222 3.2 4.8 0.00 0.00 0.00 15 1008.4
20260502013810 31 191 1.6 3.2 0.00 0.00 0.00 15 1008.2
20260502013306 31 190 1.6 3.2 0.00 0.00 0.00 15 1008.3
20260502012803 31 258 4.8 9.7 0.00 0.00 0.00 15 1008.5
20260502012300 31 231 3.2 3.2 0.00 0.00 0.00 15 1008.4
20260502011758 31 195 3.2 6.4 0.00 0.00 0.00 16 1008.5
20260502011253 31 178 3.2 4.8 0.00 0.00 0.00 15 1008.5
20260502010751 32 229 3.2 4.8 0.00 0.00 0.00 15 1008.4
20260502010247 32 223 6.4 9.7 0.00 0.00 0.00 15 1008.5
20260502005744 32 194 1.6 4.8 0.00 0.00 0.00 14 1008.6
20260502005242 32 215 1.6 4.8 0.00 0.00 0.00 15 1008.6
20260502004739 32 130 1.6 3.2 0.00 0.00 0.00 16 1008.6
20260502004235 32 158 3.2 6.4 0.00 0.00 0.00 15 1008.5
20260502003733 32 198 1.6 4.8 0.00 0.00 0.00 15 1008.6
20260502003230 32 213 1.6 4.8 0.00 0.00 0.00 15 1008.5
20260502002726 32 298 1.6 3.2 0.00 0.00 0.00 15 1008.6
20260502002224 33 11 3.2 9.7 0.00 0.00 0.00 15 1008.7
20260502001720 32 147 3.2 4.8 0.00 0.00 0.00 16 1008.6
20260502001219 32 213 3.2 6.4 0.00 0.00 0.00 16 1008.7
20260502000716 32 212 3.2 4.8 0.00 0.00 0.00 16 1008.7
20260502000214 33 267 1.6 6.4 0.00 0.00 0.00 16 1008.4
20260501235709 32 188 1.6 4.8 0.00 0.00 0.00 16 1008.8
20260501235205 33 251 3.2 11.3 0.00 0.00 0.00 16 1008.7
20260501234701 32 250 1.6 4.8 0.00 0.00 0.00 17 1008.9
20260501234159 32 167 3.2 6.4 0.00 0.00 0.00 17 1008.7
20260501233657 32 170 1.6 9.7 0.00 0.00 0.00 17 1008.9
20260501233154 32 203 3.2 4.8 0.00 0.00 0.00 17 1008.9
20260501232649 32 251 3.2 12.9 0.00 0.00 0.00 17 1009.0
20260501232147 32 261 3.2 9.7 0.00 0.00 0.00 18 1008.9
20260501231644 32 229 1.6 4.8 0.00 0.00 0.00 18 1008.9
20260501231142 32 173 6.4 12.9 0.00 0.00 0.00 17 1008.8
20260501230641 32 227 1.6 9.7 0.00 0.00 0.00 18 1009.0
20260501230138 32 239 3.2 4.8 0.00 0.00 0.00 18 1009.1
20260501225636 32 100 3.2 6.4 0.00 0.00 0.00 17 1009.1
20260501225132 32 11 3.2 6.4 0.00 0.00 0.00 18 1009.3
20260501224629 32 300 8.0 9.7 0.00 0.00 0.00 17 1009.2
20260501224126 32 207 1.6 4.8 0.00 0.00 0.00 19 1009.4
20260501223623 32 244 3.2 6.4 0.00 0.00 0.00 18 1009.3
20260501223120 32 228 3.2 4.8 0.00 0.00 0.00 17 1009.5
20260501222615 32 272 4.8 9.7 0.00 0.00 0.00 17 1009.6
20260501222113 32 333 3.2 6.4 0.00 0.00 0.00 18 1009.6
20260501221609 31 232 3.2 6.4 0.00 0.00 0.00 18 1009.6
20260501221107 32 17 6.4 9.7 0.00 0.00 0.00 17 1009.8
20260501220604 32 230 3.2 9.7 0.00 0.00 0.00 17 1009.9
20260501220101 32 135 3.2 6.4 0.00 0.00 0.00 18 1009.7
20260501215557 32 64 3.2 11.3 0.00 0.00 0.00 16 1010.0
20260501215053 32 197 3.2 11.3 0.00 0.00 0.00 18 1009.9
20260501214548 31 3 6.4 6.4 0.00 0.00 0.00 18 1009.9
20260501214044 31 258 6.4 9.7 0.00 0.00 0.00 19 1010.2
20260501213541 32 8 6.4 11.3 0.00 0.00 0.00 19 1010.2
20260501213037 31 197 1.6 4.8 0.00 0.00 0.00 19 1010.3
20260501212533 32 234 4.8 6.4 0.00 0.00 0.00 20 1010.3
20260501212031 32 314 1.6 12.9 0.00 0.00 0.00 20 1010.4
20260501211527 31 251 4.8 9.7 0.00 0.00 0.00 20 1010.5
20260501211026 31 194 4.8 6.4 0.00 0.00 0.00 20 1010.6
20260501210521 31 252 4.8 4.8 0.00 0.00 0.00 19 1010.4
20260501210018 31 256 4.8 6.4 0.00 0.00 0.00 20 1010.7
20260501205515 31 233 8.0 9.7 0.00 0.00 0.00 20 1010.5
20260501205013 31 28 3.2 9.7 0.00 0.00 0.00 21 1010.9
20260501204508 30 5 1.6 4.8 0.00 0.00 0.00 21 1010.9
20260501204005 31 298 3.2 4.8 0.00 0.00 0.00 20 1011.1
20260501203501 31 244 8.0 9.7 0.00 0.00 0.00 21 1010.9
20260501202959 31 265 6.4 6.4 0.00 0.00 0.00 20 1011.1
20260501202455 31 208 1.6 6.4 0.00 0.00 0.00 21 1011.2
20260501201952 31 289 1.6 4.8 0.00 0.00 0.00 21 1011.2
20260501201450 31 300 4.8 4.8 0.00 0.00 0.00 21 1011.3
20260501200946 30 221 3.2 11.3 0.00 0.00 0.00 21 1011.2
20260501200444 30 222 4.8 9.7 0.00 0.00 0.00 21 1011.2
20260501195941 30 230 4.8 9.7 0.00 0.00 0.00 22 1011.3
20260501195438 30 288 6.4 12.9 0.00 0.00 0.00 22 1011.4
20260501194933 30 228 4.8 9.7 0.00 0.00 0.00 23 1011.5
20260501194429 30 18 3.2 4.8 0.00 0.00 0.00 22 1011.5
20260501193925 30 178 1.6 9.7 0.00 0.00 0.00 23 1011.6
20260501193423 30 59 1.6 9.7 0.00 0.00 0.00 23 1011.6
20260501192921 30 311 3.2 4.8 0.00 0.00 0.00 22 1011.9
20260501192418 30 247 6.4 6.4 0.00 0.00 0.00 23 1011.9
20260501191915 30 199 3.2 6.4 0.00 0.00 0.00 23 1011.8
20260501191412 30 57 0.0 4.8 0.00 0.00 0.00 24 1012.1
20260501190909 29 227 1.6 4.8 0.00 0.00 0.00 24 1012.0
20260501190405 29 279 4.8 4.8 0.00 0.00 0.00 24 1012.1
20260501185900 28 133 1.6 1.6 0.00 0.00 0.00 26 1012.0
20260501185356 28 188 1.6 3.2 0.00 0.00 0.00 26 1012.1
20260501184852 28 196 3.2 6.4 0.00 0.00 0.00 25 1012.2
20260501184348 28 217 6.4 6.4 0.00 0.00 0.00 26 1012.4
20260501183843 28 196 1.6 3.2 0.00 0.00 0.00 25 1012.4
20260501183341 28 252 3.2 9.7 0.00 0.00 0.00 25 1012.5
20260501182837 27 188 1.6 4.8 0.00 0.00 0.00 26 1012.5
20260501182335 28 57 3.2 4.8 0.00 0.00 0.00 25 1012.7
20260501181831 28 231 1.6 4.8 0.00 0.00 0.00 26 1012.7
20260501181328 28 127 3.2 4.8 0.00 0.00 0.00 25 1012.9
20260501180826 27 82 1.6 3.2 0.00 0.00 0.00 25 1012.9
20260501180322 27 199 1.6 3.2 0.00 0.00 0.00 26 1013.0
20260501175819 27 57 1.6 4.8 0.00 0.00 0.00 27 1013.1
20260501175316 27 264 3.2 4.8 0.00 0.00 0.00 27 1013.0
20260501174813 27 30 3.2 3.2 0.00 0.00 0.00 26 1013.0
20260501174310 27 260 6.4 9.7 0.00 0.00 0.00 26 1013.1
20260501173808 27 281 4.8 6.4 0.00 0.00 0.00 27 1013.1
20260501173306 26 266 3.2 6.4 0.00 0.00 0.00 27 1013.0
20260501172800 27 351 4.8 11.3 0.00 0.00 0.00 28 1013.3
20260501172256 27 343 3.2 4.8 0.00 0.00 0.00 27 1013.3